Location: Congrier
(47.8099°N, 1.1170°W)
Time: 07:19:12
(UTC+00:00)

COSMOS 2455 - Pass Details

Date: 28 January 2023
Orbit: 898 x 911 km, 67.1° (Epoch: 24 March)

Event Time Altitude Azimuth Distance (km) Brightness Sun altitude
Rises 18:13:49 0° 208° (SSW) 3,510 6.6 -12.7°
Reaches altitude 10° 18:16:18 10° 207° (SSW) 2,575 5.8 -13.1°
Maximum altitude 18:22:17 80° 121° (ESE) 923 2.8 -14.1°
Enters shadow 18:28:07 11° 36° (NE) 2,524 4.8 -15.1°
